Location: Evergreen Manor
(41.4083°N, 81.4939°W)
Time: 10:36:13
(UTC+00:00)

SJ-12 - Pass Details

Date: 11 December 2019
Orbit: 568 x 586 km, 97.6° (Epoch: 21 January)

Event Time Altitude Azimuth Distance (km) Brightness Sun altitude
Rises 10:52:21 0° 9° (N) 2,811 7.4 -19.8°
Reaches altitude 10° 10:54:31 10° 7° (N) 1,904 6.5 -19.4°
Maximum altitude 10:58:37 68° 285° (WNW) 625 3.8 -18.7°
Drops below altitude 10° 11:02:40 10° 202° (SSW) 1,878 6.5 -17.9°
Sets 11:04:48 0° 200° (SSW) 2,768 7.4 -17.5°
